Regional Weather Roundup
Issued by NWS Boston, MA

Current Version | Previous Version | Text Only | Print | Product List | Glossary Off
Versions: 1 2 3 4 5 6 7 8 9 10 11 12 13 14 15 16 17 18 19 20 21 22 23 24 25 26 27 28 29 30 31 32 33 34 35 36 37 38 39 40 41 42 43 44 45 46 47 48 49 50
000 ASUS41 KBOX 180510 RWRBOX REGIONAL WEATHER ROUNDUP NATIONAL WEATHER SERVICE BOSTON/NORTON MA 100 AM EDT TUE SEP 18 2018 NOTE: "FAIR" INDICATES FEW OR NO CLOUDS BELOW 12,000 FEET WITH NO SIGNIFICANT WEATHER AND/OR OBSTRUCTIONS TO VISIBILITY. MAZALL-180600- EASTERN MASSACHUSETTS CITY SKY/WX TMP DP RH WIND PRES REMARKS BOSTON LGT RAIN 73 69 87 SW12 29.94F BEVERLY FAIR 73 69 87 SW9 29.93F LAWRENCE MOCLDY 75 68 78 SW7 29.95F BEDFORD LGT RAIN 71 68 90 SW6 29.94S BLUE HILL N/A 69 69 100 SW12 29.96F NORWOOD LGT RAIN 74 71 91 S5 29.94S MARSHFIELD CLOUDY 72 72 100 SW6 29.94F PLYMOUTH CLOUDY 72 70 93 S6 29.96F TAUNTON LGT RAIN 72 70 93 CALM 29.95F NEW BEDFORD LGT RAIN 72 72 100 SW5 29.95F $$ MAZALL-180600- CAPE COD AND THE ISLANDS CITY SKY/WX TMP DP RH WIND PRES REMARKS FALMOUTH MOCLDY 72 72 100 S5 29.97F HYANNIS MOCLDY 73 72 96 S7 29.96F CHATHAM MOCLDY 71 69 93 SW5 29.98F PROVINCETOWN FAIR 70 69 97 S8 29.96F NANTUCKET FAIR 69 68 96 S7 29.98F MARTHAS VNYRD FAIR 71 71 100 SW7 29.97F $$ MAZALL-180600- CENTRAL AND WESTERN MASSACHUSETTS CITY SKY/WX TMP DP RH WIND PRES REMARKS WORCESTER LGT RAIN 68 68 100 SW8 29.97F FITCHBURG LGT RAIN 71 68 90 S5 29.96S ORANGE LGT RAIN 72 69 90 S5 29.96F SPRINGFIELD NOT AVBL WESTFIELD LGT RAIN 71 71 100 S3 29.93F NORTH ADAMS LGT RAIN 69 69 100 VRB3 29.93F PITTSFIELD RAIN 69 66 90 CALM 29.94F FOG $$ RIZALL-180600- RHODE ISLAND CITY SKY/WX TMP DP RH WIND PRES REMARKS PROVIDENCE LGT RAIN 72 71 97 S3 29.96F NEWPORT LGT RAIN 72 71 97 S7 29.96F BLOCK ISLAND MOCLDY 72 71 97 S12 29.97S SMITHFIELD LGT RAIN 70 69 97 SW5 29.97F WESTERLY FAIR 73 73 100 S7 29.96F $$ CTZALL-180600- CONNECTICUT CITY SKY/WX TMP DP RH WIND PRES REMARKS BRADLEY INTL CLOUDY 72 71 97 SE6 29.93F HARTFORD CLOUDY 72 70 93 S5 29.93F BRIDGEPORT CLOUDY 76 69 79 S9 29.92F DANBURY LGT RAIN 71 70 96 SE5 29.93F GROTON FAIR 73 71 93 S6 29.94F NEW HAVEN CLOUDY 75 72 90 S9 29.93F CHESTER FAIR 72 72 100 S7 29.96S MERIDEN CLOUDY 72 70 93 SE3 29.93F WILLIMANTIC CLOUDY 73 71 93 S3 29.95F OXFORD CLOUDY 70 69 97 S8 29.95F $$ MEZ002-015-021-024-NHZ003-005-008-011-012-014-VTZ005-008-180600- NORTHERN NEW ENGLAND CITY SKY/WX TMP DP RH WIND PRES REMARKS PORTLAND ME FAIR 70 65 84 SW6 29.90F BANGOR ME FAIR 67 64 90 S5 29.85S CONCORD NH LGT RAIN 70 67 90 S3 29.93S MANCHESTER NH LGT RAIN 72 69 90 S3 29.92S NASHUA NH LGT RAIN 71 71 100 CALM 29.94F PORTSMOUTH NH NOT AVBL JAFFREY NH LGT RAIN 70 69 97 SW5 29.96F KEENE NH RAIN N/A N/A N/A S3 29.94F BURLINGTON VT MOCLDY 72 65 78 S9 29.88F MT. WASHINGTON FOG 52 52 100 W43G51 N/A VSB 0 $$ NYZ052-076-180600- EASTERN NEW YORK CITY SKY/WX TMP DP RH WIND PRES REMARKS ALBANY LGT RAIN 72 69 90 S8 29.91F NEW YORK CITY CLOUDY 76 71 85 S13G22 29.89F $$ ANZALL-180600- MARINE OBSERVATIONS STATION/POSITION TIME TEMP WIND PRES VSBY WAVE AIR SEA DIR/SP/G HT/PER (UTC) (F) (DEG/KT/KT) (MB) (MI) (FT/S) BOSTON BUOY 0450 69 68 170/ 6/ 8 1013.3F 2/ 9 BUZZARDS BAY 0400 71 190/ 13/ 14 1015.4F NANTUCKET SOUND 0450 72 72 210/ 10/ 12 1014.7F 1/ 3 MASS BAY-STELLWA 0404 69 68 220/ 10/ 12 1012.5F 1 7/8 3/11 ISLE OF SHOALS 0500 71 220/ 16/ 16 1012.8S S OF BLOCK IS 0443 69 N/A 3/11 $$ ......................KEY......................... SKY/WX - SKY CONDITION/PRESENT WEATHER TMP - TEMPERATURE IN FAHRENHEIT DWPT - DEWPOINT IN FAHRENHEIT RH - RELATIVE HUMIDITY IN PERCENT WIND - DIRECTION AND SPEED IN MPH PRES - MEAN SEA LEVEL PRESSURE IN INCHES OF HG WCI - WIND CHILL INDEX VSB - VISIBILITY IN MILES HX - HEAT INDEX TC - TEMPERATURE IN CELSIUS VRB - VARIABLE WIND DIRECTION N/A - NOT AVAILABLE

USA.gov is the U.S. government's official web portal to all federal, state and local government web resources and services.